Regional Weather Roundup
Issued by NWS

Home | Current Version | Previous Version | Graphics & Text | Print | Product List | Glossary On
Versions: 1 2 3 4 5 6 7 8 9 10 11 12 13 14 15 16 17 18 19 20 21 22 23 24 25 26 27 28 29 30 31 32 33 34 35 36 37 38 39 40 41 42 43 44 45 46 47 48 49 50
000
ASUS43 KOAX 210202
RWRNE

WEATHER ROUNDUP FOR NEBRASKA
NATIONAL WEATHER SERVICE OMAHA NE
800 PM CST THU NOV 20 2014

NOTES: SATELLITE DATA IS BEING USED TO AUGMENT CLOUD COVER ABOVE
       12000 FEET.
       "FAIR" INDICATES FEW OR NO CLOUDS BELOW 12,000 FEET WITH NO
       SIGNIFICANT WEATHER AND/OR OBSTRUCTIONS TO VISIBILITY.

  * THESE STATIONS DO NOT REPORT WEATHER SUCH AS RAIN...SNOW OR FOG.

NEZ001>004-019>022-054>056-210300-
NEBRASKA PANHANDLE

CITY           SKY/WX    TMP DP  RH WIND       PRES   REMARKS
SCOTTSBLUFF    PTCLDY    30  18  60 SE7       29.95R WCI  23
ALLIANCE       CLEAR     31  17  56 S9        29.94S WCI  23
CHADRON        CLEAR     24  20  84 W5        29.94R WCI  18
KIMBALL        PTCLDY    31  11  43 SW5       29.96S WCI  26
SIDNEY         CLEAR     31  16  54 SW5       29.98R WCI  26
$$

NEZ057>060-069>072-079>082-210300-
SOUTHWEST NEBRASKA

CITY           SKY/WX    TMP DP  RH WIND       PRES   REMARKS
NORTH PLATTE   PTCLDY    20  15  81 E8        30.05R WCI  10
IMPERIAL       CLEAR     26  16  65 SE8       30.02R WCI  18
LEXINGTON      PTCLDY    28  20  71 SE7       30.09R WCI  21
MCCOOK         PTCLDY    27  18  69 E6        30.07R WCI  20
OGALLALA       CLEAR     34  22  61 SE6       30.01R WCI  29
$$

NEZ005>010-023>029-035>040-094-210300-
NORTH CENTRAL NEBRASKA

CITY           SKY/WX    TMP DP  RH WIND       PRES   REMARKS
VALENTINE      CLEAR     19  16  88 NE5       30.01F WCI  12
AINSWORTH      CLEAR     26  20  80 S10       30.03S WCI  15
BROKEN BOW     CLEAR     25  18  74 SE6       30.07S WCI  18
O`NEILL        PTCLDY    20  17  88 SE8       30.10S WCI  11
ORD            PTCLDY    24  19  81 SE7       30.11R WCI  16
THEDFORD       CLEAR     29  22  75 S6        30.03R WCI  22
$$

NEZ041-046>049-061>064-073>077-083>087-210300-
SOUTH CENTRAL NEBRASKA

CITY           SKY/WX    TMP DP  RH WIND       PRES   REMARKS
GRAND ISLAND   PTCLDY    22  18  85 E6        30.15R WCI  14
AURORA         PTCLDY    20  17  87 E7        30.15S WCI  11
HASTINGS       PTCLDY    28  19  69 E9        30.13R WCI  19
HEBRON         PTCLDY    26  18  73 SE5       30.17R WCI  20
HOLDREGE       PTCLDY    24  16  70 SE8       30.10R WCI  15
KEARNEY *      PTCLDY    25  16  68 E6        30.13R WCI  18
YORK           PTCLDY    23  19  86 E9        30.17R WCI  13
$$

NEZ011>018-030>034-042>045-210300-
NORTHEAST NEBRASKA

CITY           SKY/WX    TMP DP  RH WIND       PRES   REMARKS
NORFOLK        PTCLDY    19  15  84 SE7       30.17R WCI  10
ALBION         PTCLDY    20  15  84 SE6       30.15S WCI  12
BLAIR          MOCLDY    22  16  78 E6        30.22R WCI  14
COLUMBUS *     PTCLDY    16   9  73 E5        30.19S WCI   9
FREMONT        PTCLDY    22  17  83 CALM      30.22R
TEKAMAH        MOCLDY    19  13  77 CALM      30.24R
WAYNE          PTCLDY    17  13  84 E7        30.20R WCI   8
$$

NEZ050>053-065>068-078-088>093-210300-
SOUTHEAST NEBRASKA

CITY           SKY/WX    TMP DP  RH WIND       PRES   REMARKS
LINCOLN        PTCLDY    23  16  74 E5        30.22S WCI  17
OMAHA EPPLEY   MOCLDY    23  16  74 CALM      30.25R
BEATRICE       PTCLDY    25  18  75 E3        30.20R
FALLS CITY     PTCLDY    23  17  78 E5        30.23S WCI  17
NEBRASKA CITY  PTCLDY    22  15  74 E3        30.22S
PLATTSMOUTH    PTCLDY    22  16  77 E5        30.22S WCI  16
$$

NEZ044-045-051>053-067-210300-
OMAHA AREA

CITY           SKY/WX    TMP DP  RH WIND       PRES   REMARKS
OMAHA EPPLEY   MOCLDY    23  16  74 CALM      30.25R
BLAIR          MOCLDY    22  16  78 E6        30.22R WCI  14
FREMONT        PTCLDY    22  17  83 CALM      30.22R
MILLARD        PTCLDY    23  18  79 CALM      30.23R
OFFUTT AFB     PTCLDY    19  14  83 NE3       30.24R
PLATTSMOUTH    PTCLDY    22  16  77 E5        30.22S WCI  16
WAHOO          FAIR      19  14  81 E5        30.22R WCI  12
$$



USA.gov is the U.S. government's official web portal to all federal, state and local government web resources and services.